N9WFD Weather Reports


Display with metric or nautical units.
time (UTC)temp
F
wind
direction
speed
MPH
gust
MPH
rain 1hr
in
rain 24hr
in
rain mn
in
humidity
%
barometer
mb
20260506040030 50 94 0.0 2.0 0.00 0.00 0.00 46 1010.0
20260506034529 50 94 0.0 3.0 0.00 0.00 0.00 45 1010.0
20260506033025 50 95 1.0 5.0 0.00 0.00 0.00 45 1009.6
20260506031525 51 131 0.0 4.0 0.00 0.00 0.00 45 1009.5
20260506030025 51 104 0.0 4.0 0.00 0.00 0.00 45 1009.5
20260506024524 51 90 2.0 8.0 0.00 0.00 0.00 45 1009.6
20260506023056 52 87 3.0 9.0 0.00 0.00 0.00 45 1009.3
20260506021550 52 62 1.0 3.0 0.00 0.00 0.00 46 1009.1
20260506020030 52 61 0.0 4.0 0.00 0.00 0.00 44 1008.7
20260506014515 52 63 1.0 6.0 0.00 0.00 0.00 44 1008.3
20260506013011 52 57 1.0 3.0 0.00 0.00 0.00 44 1008.1
20260506011511 53 57 1.0 2.0 0.00 0.00 0.00 43 1008.2
20260506010012 53 57 0.0 3.0 0.00 0.00 0.00 41 1007.7
20260506004520 54 79 1.0 6.0 0.00 0.00 0.00 40 1007.6
20260506003008 54 73 3.0 8.0 0.00 0.00 0.00 39 1007.5
20260506001507 54 59 5.0 11.0 0.00 0.00 0.00 38 1007.5
20260506000006 54 97 3.0 12.0 0.00 0.00 0.00 39 1007.6
20260505234506 55 82 2.0 7.0 0.00 0.00 0.00 40 1007.5
20260505233004 55 54 2.0 9.0 0.00 0.00 0.00 39 1007.5
20260505231502 55 37 6.0 10.0 0.00 0.00 0.00 38 1007.5
20260505230005 55 48 3.0 6.0 0.00 0.00 0.00 37 1007.7
20260505224502 55 46 4.0 11.0 0.00 0.00 0.00 37 1007.8
20260505223037 55 11 7.0 10.0 0.00 0.00 0.00 37 1007.7
20260505221531 55 50 5.0 14.0 0.00 0.00 0.00 37 1007.6
20260505220029 55 59 6.0 10.0 0.00 0.00 0.00 37 1007.8
20260505214528 55 56 6.0 13.0 0.00 0.00 0.00 36 1007.7
20260505213029 55 58 7.0 14.0 0.00 0.00 0.00 35 1007.7
20260505211531 55 37 10.0 14.0 0.00 0.00 0.00 34 1007.6
20260505210025 56 31 7.0 14.0 0.00 0.00 0.00 34 1007.7
20260505204524 55 33 7.0 15.0 0.00 0.00 0.00 34 1007.7
20260505203023 55 90 4.0 11.0 0.00 0.00 0.00 35 1007.9
20260505201521 55 113 5.0 14.0 0.00 0.00 0.00 34 1007.9
20260505200019 55 37 6.0 14.0 0.00 0.00 0.00 35 1007.8
20260505194520 56 352 5.0 13.0 0.00 0.00 0.00 34 1007.9
20260505193017 55 91 5.0 15.0 0.00 0.00 0.00 34 1007.9
20260505191519 55 55 4.0 15.0 0.00 0.00 0.00 34 1008.3
20260505190046 56 69 5.0 13.0 0.00 0.00 0.00 32 1008.1
20260505184545 55 42 9.0 14.0 0.00 0.00 0.00 35 1008.0
20260505183041 55 59 7.0 18.0 0.00 0.00 0.00 34 1008.0
20260505181602 55 57 5.0 15.0 0.00 0.00 0.00 35 1007.9
20260505180042 55 37 4.0 15.0 0.00 0.00 0.00 34 1007.6
20260505174539 55 54 6.0 14.0 0.00 0.00 0.00 35 1007.6
20260505173032 54 11 9.0 15.0 0.00 0.00 0.00 36 1007.6
20260505171537 53 85 7.0 17.0 0.00 0.00 0.00 38 1007.5
20260505170030 53 63 7.0 16.0 0.00 0.00 0.00 39 1007.9
20260505164528 53 42 7.0 14.0 0.00 0.00 0.00 39 1007.8
20260505163023 52 47 5.0 15.0 0.00 0.00 0.00 40 1007.6
20260505161523 52 29 8.0 14.0 0.00 0.00 0.00 40 1007.6
20260505153031 51 77 4.0 9.0 0.00 0.00 0.00 42 1007.3
20260505151513 51 60 8.0 14.0 0.00 0.00 0.00 43 1007.5
20260505140109 49 73 4.0 10.0 0.00 0.00 0.00 47 1007.9
20260505124551 48 86 2.0 6.0 0.00 0.00 0.00 50 1007.5
20260505123053 48 53 4.0 8.0 0.00 0.00 0.00 49 1007.3
20260505121543 48 69 4.0 12.0 0.00 0.00 0.00 52 1007.6
20260505114536 48 62 2.0 5.0 0.00 0.00 0.00 53 1007.2
20260505113034 48 85 2.0 6.0 0.00 0.00 0.00 52 1006.2
20260505111504 48 123 2.0 9.0 0.00 0.00 0.00 51 1005.4
20260505101601 49 69 3.0 7.0 0.00 0.00 0.00 55 1005.6
20260505100052 49 113 1.0 3.0 0.00 0.00 0.00 54 1004.7
20260505094548 50 86 1.0 9.0 0.00 0.00 0.00 53 1004.9
20260505093048 50 100 5.0 11.0 0.00 0.00 0.00 53 1004.7
20260505091553 50 75 5.0 9.0 0.00 0.00 0.00 53 1004.8
20260505090042 51 98 3.0 13.0 0.00 0.00 0.00 51 1004.1
20260505084539 51 53 5.0 10.0 0.00 0.00 0.00 50 1004.0
20260505083046 52 113 4.0 11.0 0.00 0.00 0.00 49 1003.4
20260505081535 52 98 6.0 13.0 0.00 0.00 0.00 48 1003.2
20260505080033 53 71 4.0 12.0 0.00 0.00 0.00 47 1003.0
20260505074502 54 102 5.0 11.0 0.00 0.00 0.00 47 1002.7
20260505073002 56 107 3.0 14.0 0.00 0.00 0.00 47 1002.4
20260505071556 56 94 5.0 10.0 0.00 0.00 0.00 46 1001.9
20260505070105 57 85 2.0 10.0 0.00 0.00 0.00 44 1001.9
20260505064639 58 65 3.0 11.0 0.00 0.00 0.00 42 1001.6
20260505063058 58 69 5.0 13.0 0.00 0.00 0.00 41 1001.5
20260505061554 59 69 5.0 13.0 0.00 0.00 0.00 41 1001.4
20260505060053 59 83 6.0 13.0 0.00 0.00 0.00 40 1001.0
20260505054552 59 84 4.0 17.0 0.00 0.00 0.00 40 1001.0
20260505053050 60 75 6.0 12.0 0.00 0.00 0.00 39 1000.9
20260505051550 60 73 5.0 12.0 0.00 0.00 0.00 39 1000.7
20260505041544 63 60 6.0 16.0 0.00 0.00 0.00 38 1000.0